#timestamp,LO_Frequency,Hit,StdDev 
1641135615.8,286046998.9,N
1641135635.6,286046998.2,N
1641135655.5,286046998.1,N
1641135675.3,286046996.5,N
1641135695.2,286046996.6,N
1641135715.9,286046998.8,N
1641135735.7,286046999.5,N
1641135755.6,286046999.6,N
1641135775.4,286046999.4,N
1641135795.2,286046999.5,N
1641135815.1,286046997.2,N
1641135816.0,286046997.2,N
1641135835.8,286046997.5,N
1641135855.7,286046997.1,N
1641135875.5,286046997.7,N
1641135895.3,286046998.0,N
1641135915.2,286046997.6,N
1641135965.0,286046999.6,E
1641135975.9,286046996.5,N
1641135995.7,286046999.4,P
1641136015.5,286046998.1,N
1641136035.4,286046998.8,N
1641136055.2,286046996.5,Y
1641136075.1,286047000.4,P
1641136076.0,286047000.4,N
1641136095.8,286047000.0,N
1641136115.6,286047000.9,N
1641136135.5,286047002.3,N
1641136155.3,286047000.8,N
1641136175.2,286046998.5,N
1641136195.9,286046998.2,N
1641136215.7,286047001.2,N
1641136235.6,286046999.0,N
1641136255.4,286046998.6,N
1641136275.2,286046999.4,N
1641136295.1,286047001.1,N
1641136296.0,286047001.1,N
1641136315.8,286046998.6,N
1641136335.7,286046998.7,N
1641136355.5,286046996.9,N
1641136375.3,286046996.5,N
1641136395.2,286046998.4,N
1641136415.0,286046998.8,N
1641136415.9,286046998.8,N
1641136435.7,286046998.7,N
1641136455.6,286046998.3,N
1641136475.4,286046998.7,N
1641136495.3,286046999.0,N
1641136515.1,286046998.3,N
1641136516.0,286046998.3,N
1641136535.8,286046999.3,N
1641136555.7,286046999.0,N
1641136575.5,286046998.3,N
1641136595.3,286046999.5,N
1641136615.2,286046998.8,N
1641136635.0,286046997.3,N
1641136635.9,286046997.3,N
1641136655.8,286046997.7,N
1641136675.6,286046997.6,N
1641136695.4,286046995.2,Y
1641136715.3,286046996.6,P
1641136735.1,286046999.5,N
1641136755.9,286046999.1,N
1641136775.7,286046996.5,Y
1641136795.5,286047000.6,P
1641136815.4,286046999.9,N
1641136835.2,286046999.8,N
1641136855.0,286047000.1,N
1641136855.9,286047000.1,N
1641136875.8,286046999.8,N
1641136895.6,286047002.7,Y
1641136915.5,286046999.8,P
1641136935.3,286047001.2,P
1641136955.1,286047001.0,N
1641136975.9,286047000.7,N
1641136995.7,286046998.7,N
1641137015.5,286047000.8,N
1641137035.4,286047000.1,N
1641137055.2,286047000.3,N
1641137075.1,286047001.0,N
1641137076.0,286047001.0,N
1641137095.8,286046998.5,N
1641137115.6,286046998.4,N
1641137135.2,286046999.2,N
1641137155.0,286046999.1,N
1641137155.9,286046999.1,N
1641137175.8,286046999.1,N
1641137195.6,286046997.0,Y
1641137215.4,286046997.3,P
1641137235.3,286046997.1,N
1641137255.1,286046997.2,N
1641137275.8,286046999.4,N
1641137295.7,286047001.2,N
1641137315.5,286046998.6,N
1641137335.4,286046999.2,N
1641137355.2,286046998.9,N
1641137375.0,286046999.4,N
1641137375.9,286046999.4,N
1641137395.8,286046998.6,N
1641137415.6,286046998.4,N
1641137435.4,286047000.9,N
1641137455.3,286046998.5,N
1641137475.1,286046999.0,N
1641137495.9,286046998.8,N
1641137515.7,286046998.9,N
1641137535.5,286046998.5,N
1641137555.4,286046999.4,N
1641137575.2,286046999.6,N
1641137595.0,286046999.2,N
1641137595.9,286046999.2,N
1641137615.8,286046999.2,N
1641137635.6,286046999.4,N
1641137655.5,286046998.9,N
1641137675.3,286046996.5,Y
1641137695.1,286046998.3,P
1641137715.9,286046999.4,N
1641137735.7,286047001.2,N
1641137755.6,286046998.2,N
1641137775.4,286047000.9,N
1641137795.2,286046998.4,N
1641137815.1,286046996.7,N
1641137816.0,286046996.7,N
1641137835.8,286046996.9,N
1641137855.7,286046999.5,N
1641137875.5,286046999.2,N
1641137895.3,286046996.5,N
1641137915.2,286046997.2,N
1641137935.9,286046997.0,N
1641137955.7,286046997.9,N
1641137975.6,286046995.2,Y
1641137995.4,286046995.3,P
1641138015.3,286046995.2,P
1641138035.1,286046995.3,P
1641138036.0,286046995.3,Y
1641138055.8,286047002.5,P
1641138075.7,286047000.1,N
1641138095.5,286047002.7,N
1641138115.4,286047002.3,N
1641138135.2,286047000.4,N
1641138155.0,286047002.3,N
1641138155.9,286047002.3,N
1641138175.8,286047002.6,N
1641138195.6,286047002.5,N
1641138215.4,286047001.8,N
1641138235.3,286047001.7,N
1641138255.1,286047004.4,N
1641138275.9,286047002.7,N
1641138295.7,286047002.0,N
1641138315.5,286047000.5,N
1641138335.4,286047002.6,N
1641138355.2,286047000.4,N
1641138375.0,286047002.3,N
1641138375.9,286047002.3,N
1641138395.8,286047002.8,N
1641138415.6,286047002.2,N
1641138435.5,286047000.2,N
1641138455.3,286047002.1,N
1641138475.1,286047001.9,N
1641138495.9,286047001.4,N
1641138515.7,286047004.1,N
1641138535.6,286047003.6,N
1641138555.4,286047003.5,N
1641138575.2,286047005.6,Y
1641138595.1,286047002.2,P
1641138596.0,286047002.2,P
1641138615.8,286047003.8,P
1641138635.6,286047003.9,Y
1641138655.5,286046999.8,P
1641138675.3,286047000.6,N
1641138695.2,286047000.3,N
1641138715.9,286046999.8,N
1641138735.7,286047000.6,N
1641138755.6,286046998.4,N
1641138775.4,286047001.1,N
1641138795.2,286046998.8,N
1641138815.1,286047000.8,N
1641138816.0,286047000.8,N
1641138835.8,286047000.5,N
1641138855.7,286046998.4,N
1641138875.5,286047001.1,N
1641138895.3,286046999.4,N
1641138915.2,286046999.0,N
1641138935.0,286046998.8,N
1641138935.9,286046998.8,N
1641138955.8,286046999.1,N
1641138975.6,286047001.1,N
1641138995.4,286046999.0,N
1641139015.3,286046998.3,N
1641139035.1,286046998.4,N
1641139055.8,286047001.0,N
1641139075.7,286047001.1,N
1641139095.5,286046998.2,N
1641139115.4,286046998.2,N
1641139135.2,286047001.1,N
1641139155.0,286047000.6,N
1641139155.9,286047000.6,N
1641139175.8,286047000.3,N
1641139195.6,286047000.0,N
